Miscellaneous Local Product
Issued by NWS Hastings, NE

Home | Current Version | Previous Version | Graphics & Text | Print | Product List | Glossary On
Versions: 1 2 3 4 5 6 7 8 9 10 11 12 13 14 15 16 17 18 19 20 21 22 23 24 25 26 27 28 29 30 31 32 33 34 35 36 37 38 39 40 41 42 43 44 45 46 47 48 49 50
000
AXUS43 KGID 052002
MISGRI

GID CWA HOURLY WEATHER ROUNDUP
NATIONAL WEATHER SERVICE HASTINGS NE
300 PM CDT SUN JUL 05 2015

NOTE: "FAIR" INDICATES FEW OR NO CLOUDS BELOW 12,000 FEET WITH NO
SIGNIFICANT WEATHER AND/OR OBSTRUCTIONS TO VISIBILITY.

...SOUTH CENTRAL NEBRASKA...

CITY           SKY/WX    TMP DP  RH WIND       PRES   REMARKS
GRAND ISLAND   MOSUNNY   90  73  57 SE16G24   29.81F HX  98
HASTINGS       SUNNY     94  69  44 S16G26    29.80F HX  99
KEARNEY        SUNNY     93  70  46 S16G24    29.79F HX  99
ORD            MOSUNNY   89  69  51 SE18G26   29.78F HX  93
YORK           SUNNY     86  75  70 S15G24    29.83F HX  95
AURORA         MOSUNNY   90  73  58 S16G22    29.81F HX  98
LEXINGTON      SUNNY     92  69  46 SE13      29.79F HX  98
HOLDREGE       SUNNY     94  65  38 SE16G23   29.79F HX  96
HEBRON         SUNNY     93  68  43 S13G23    29.83F HX  97

...NEBRASKA PANHANDLE...

CITY           SKY/WX    TMP DP  RH WIND       PRES   REMARKS
CHADRON        PTSUNNY   88  67  49 N10       29.83R HX  91
ALLIANCE       MOSUNNY   92  59  33 NW13G20   29.83F HX  91
SCOTTSBLUFF    PTSUNNY   94  55  26 VRB7      29.83F HX  92
SIDNEY         MOSUNNY   95  54  25 MISG      29.86F HX  93

...WESTERN AND NORTH CENTRAL NEBRASKA...

CITY           SKY/WX    TMP DP  RH WIND       PRES   REMARKS
VALENTINE      PTSUNNY   93  66  40 SE9       29.77S HX  96
AINSWORTH      MOSUNNY   92  70  49 S13       29.79F HX  97
ONEILL         MOSUNNY   87  73  62 S13       29.79S HX  94
BROKEN BOW     SUNNY     91  70  49 S15G28    29.81S HX  96
IMPERIAL       SUNNY     98  56  24 S7        29.80F HX  96
NORTH PLATTE   SUNNY     93  67  42 SE12G18   29.80F HX  96
MCCOOK         SUNNY    103  57  21 SW12G23   29.75F HX 102

...EASTERN NEBRASKA...

CITY           SKY/WX    TMP DP  RH WIND       PRES   REMARKS
NORFOLK        SUNNY     85  74  69 S16G24    29.80F HX  92
SO SIOUX CITY  MOSUNNY   86  72  62 SE17G24   29.81F HX  92
TEKAMAH        MOSUNNY   89  73  59 S17G23    29.83F HX  97
COLUMBUS       SUNNY     86  73  66 S13G21    29.82F HX  93
ALBION         SUNNY     84  71  65 S20       29.80F
OMAHA EPPLEY   PTSUNNY   88  73  61 SE23G29   29.84F HX  95
OFFUTT AFB     PTSUNNY   88  75  65 SE17G24   29.84F HX  97
MILLARD        MOSUNNY   87  75  68 SE16G22   29.84F HX  96
LINCOLN        SUNNY     91  73  55 S22G30    29.83F HX  99
NEBRASKA CITY  PTSUNNY   85  68  56 S17       29.87F
BEATRICE       SUNNY     89  74  60 S15       29.85F HX  98
FALLS CITY     MOSUNNY   90  74  59 S17G23    29.87F HX  99

...NORTHERN KANSAS...

CITY           SKY/WX    TMP DP  RH WIND       PRES   REMARKS
GOODLAND       SUNNY     98  50  19 S17G26    29.83F HX  95
HILL CITY      SUNNY    103  59  23 S23G38    29.78F HX 103
NORTON         CLEAR    100  52  19 S15G24    29.77F HX  98
PHILLIPSBURG   MOSUNNY  106  57  20 S17G26    29.76F HX 105
SMITH CENTER   MOSUNNY  100  61  27 S22G29    29.78F HX 101
HAYS           SUNNY    100  63  28 SW23G31   29.81F HX 102
RUSSELL        LGT RAIN  98  63  31 S24G35    29.81F HX 100
CONCORDIA      SUNNY     95  67  39 S18       29.82F HX  99
SALINA         SUNNY    101  65  30 S20G32    29.83F HX 104
TOPEKA         PTSUNNY   89  72  56 SE15G21   29.90F HX  96



USA.gov is the U.S. government's official web portal to all federal, state and local government web resources and services.